Regional Weather Roundup
Issued by NWS

Home | Current Version | Previous Version | Text Only | Print | Product List | Glossary On
Versions: 1 2 3 4 5 6 7 8 9 10 11 12 13 14 15 16 17 18 19 20 21 22 23 24 25 26 27 28 29 30 31 32 33 34 35 36 37 38 39 40 41 42 43 44 45 46 47 48 49 50
000
ASUS44 KMEG 240310
RWRTN
TENNESSEE HOURLY STATE WEATHER ROUNDUP
NATIONAL WEATHER SERVICE MEMPHIS TN
1000 PM CDT SAT JUL 23 2016

TNZ002-004-019-021-049-052-054-088>092-240400-
WEST TENNESSEE

CITY           SKY/WX    TMP DP  RH WIND       PRES   REMARKS
MEMPHIS INTL   CLOUDY    84  75  74 SE5       29.97R HX  92
NWS MEMPHIS      N/A     82 N/A N/A MISG        N/A
JACKSON        MOCLDY    79  77  94 CALM      29.98R
DYERSBURG      CLOUDY    79  75  89 MISG      29.98R
UNION CITY     MOCLDY    79  79 100 S3        29.97R
PARIS          PTCLDY    75  73  94 CALM      30.00R
LEXINGTON      PTCLDY    79  77  94 CALM      29.98R
$$

TNZ008-025-027-028-033-062-065-066-240400-
NORTH MIDDLE TENNESSEE

CITY           SKY/WX    TMP DP  RH WIND       PRES   REMARKS
NASHVILLE      CLOUDY    79  72  79 S3        30.00R
CLARKSVILLE    CLOUDY    78  75  90 CALM      29.99R
SMYRNA         CLOUDY    78  72  82 S5        30.01R
COOKEVILLE     CLEAR     75  72  88 S3        30.03R
CROSSVILLE     PTCLDY    72  68  87 CALM      30.09R
$$

TNZ061-075-076-078-094-096-097-240400-
SOUTH MIDDLE TENNESSEE

CITY           SKY/WX    TMP DP  RH WIND       PRES   REMARKS
FAYETTEVILLE   CLEAR     73  72  94 CALM      30.02R
TULLAHOMA      CLEAR     73  72  94 CALM      30.05R
WINCHESTER     CLEAR     75  72  88 CALM      30.04R
MCMINNVILLE    CLEAR     73  73 100 CALM      30.05R
COLUMBIA       CLEAR     79  79 100 CALM      29.99S
SHELBYVILLE    CLEAR     73  73 100 E5        30.03S
$$

TNZ017-018-042-046-047-240400-
NORTHEAST TENNESSEE

CITY           SKY/WX    TMP DP  RH WIND       PRES   REMARKS
TRI CITIES     CLEAR     76  68  76 CALM      30.07R
ELIZABETHTON   CLEAR     73  70  88 CALM      30.08R
$$

TNZ012-013-036-069-073-074-240400-
CENTRAL EAST TENNESSEE

CITY           SKY/WX    TMP DP  RH WIND       PRES   REMARKS
KNOXVILLE      PTCLDY    75  71  87 SW3       30.05R
OAK RIDGE      CLEAR     76  72  87 CALM      30.06R
GATLINBURG     CLEAR     73  66  78 CALM      30.05R
MORRISTOWN     MOCLDY    75  70  83 S5        30.06R
$$

TNZ083-085-099-240400-
SOUTHEAST TENNESSEE

CITY           SKY/WX    TMP DP  RH WIND       PRES   REMARKS
CHATTANOOGA    CLOUDY    81  70  69 CALM      30.04R
$$

SKY/WX REPORTED AS FAIR MEANS FEW OR NO CLOUDS BELOW
12 THOUSAND FEET.





USA.gov is the U.S. government's official web portal to all federal, state and local government web resources and services.